7 * 24
多渠道服务支持
STARLINK-32706 是 SpaceX Starlink 卫星互联网项目中的一颗低轨卫星,属于第6批部署的星链卫星群。该卫星于2023年发射,运行在约550公里高度的近地轨道,旨在为全球提供高速、低延迟的宽带互联网服务。它采用先进的相控阵天线和激光通信技术,支持高效数据传输,并具备自动避障功能以确保太空安全。作为星链计划的重要组成部分,STARLINK-32706 有助于扩大网络覆盖,特别是在偏远和网络基础设施薄弱的地区。
美国
(US)
| 数据来源 | 国际轨道数据 |
| 星历时间: | 2025-11-06T23:49:14+0800 1天前 查看轨道信息 |
| 半长轴: | 6853.288km |
| 偏心率: | 0.000103 |
| 轨道倾角: | 53.161° |
| 近地点辐角 | 81.585° |
| 升交点赤经 | 45.650° |
| 平近点角 | 278.526° |
| 近地点: | 474.447km |
| 远地点: | 475.859km |
| 周期: | 94.104分钟 |
| 每日圈数: | 15.302215 |